{"data":{"norad_id":56041,"epoch":"2026-09-20T08:13:32.520864Z","epoch_age_seconds":119656,"freshness":"FRESH","line1":"1 56041U 23042BH  26263.34273751 -.00000291  00000+0 -10461-5 0  9998","line2":"2 56041  43.0036  14.6877 0001273 271.2255  88.8451 15.27574430192930","mean_motion":15.2757443,"eccentricity":0.0001273,"inclination_deg":43.0036,"raan_deg":14.6877,"arg_perigee_deg":271.2255,"mean_anomaly_deg":88.8451,"bstar":-1.0461e-6,"rev_number":19293,"period_min":94.267092438828,"perigee_km":482.19234356091,"apogee_km":483.93920578735,"semimajor_km":6861.2027746741,"source":"CELESTRAK","updated_at":"2026-09-21T09:00:33.361387Z"}}